| time (UTC) | temp F | wind direction | speed MPH | gust MPH | rain 1hr in | rain 24hr in | rain mn in | humidity % | barometer mb |
| 20260507132746 | 49 | 340 | 4.0 | 0.0 | 158.78 | 0.00 | 0.00 | 62 | 1015.0 |
| 20260507132245 | 49 | 55 | 2.0 | 0.0 | 158.78 | 0.00 | 0.00 | 63 | 1015.0 |
| 20260507131745 | 48 | 1 | 4.0 | 0.0 | 158.78 | 0.00 | 0.00 | 63 | 1015.0 |
| 20260507130745 | 48 | 55 | 4.0 | 0.0 | 158.78 | 0.00 | 0.00 | 67 | 1015.0 |
| 20260507130427 | 47 | 39 | 4.0 | 0.0 | 158.78 | 0.00 | 0.00 | 69 | 1015.1 |
| 20260507130246 | 48 | 283 | 5.0 | 0.0 | 158.78 | 0.00 | 0.00 | 66 | 1015.1 |
| 20260507125746 | 47 | 39 | 4.0 | 0.0 | 158.78 | 0.00 | 0.00 | 69 | 1015.1 |
| 20260507124246 | 46 | 284 | 2.0 | 0.0 | 158.78 | 0.00 | 0.00 | 72 | 1015.0 |
| 20260507123746 | 46 | 281 | 3.0 | 0.0 | 158.78 | 0.00 | 0.00 | 73 | 1014.9 |
| 20260507123247 | 46 | 297 | 3.0 | 0.0 | 158.78 | 0.00 | 0.00 | 75 | 1014.9 |
| 20260507122746 | 45 | 359 | 0.0 | 0.0 | 158.78 | 0.00 | 0.00 | 74 | 1014.9 |
| 20260507122246 | 45 | 318 | 5.0 | 0.0 | 158.78 | 0.00 | 0.00 | 76 | 1014.9 |
| 20260507121745 | 45 | 311 | 4.0 | 0.0 | 158.78 | 0.00 | 0.00 | 78 | 1015.1 |
| 20260507121247 | 44 | 283 | 5.0 | 0.0 | 158.78 | 0.00 | 0.00 | 79 | 1015.0 |
| 20260507120745 | 44 | 338 | 3.0 | 0.0 | 158.78 | 0.00 | 0.00 | 80 | 1015.0 |
| 20260507120245 | 44 | 280 | 5.0 | 0.0 | 158.78 | 0.00 | 0.00 | 81 | 1015.0 |
| 20260507115245 | 43 | 346 | 0.0 | 0.0 | 158.78 | 0.00 | 0.00 | 83 | 1014.9 |
| 20260507114745 | 43 | 266 | 0.0 | 0.0 | 158.78 | 0.00 | 0.00 | 84 | 1014.9 |
| 20260507114245 | 43 | 17 | 1.0 | 0.0 | 158.78 | 0.00 | 0.00 | 85 | 1015.0 |
| 20260507113745 | 42 | 304 | 3.0 | 0.0 | 158.78 | 0.00 | 0.00 | 86 | 1015.0 |
| 20260507113245 | 42 | 307 | 0.0 | 0.0 | 158.78 | 0.00 | 0.00 | 87 | 1015.0 |
| 20260507112745 | 42 | 314 | 1.0 | 0.0 | 158.78 | 0.00 | 0.00 | 87 | 1015.0 |
| 20260507112245 | 41 | 323 | 1.0 | 0.0 | 158.78 | 0.00 | 0.00 | 88 | 1015.0 |
| 20260507111745 | 41 | 328 | 2.0 | 0.0 | 158.78 | 0.00 | 0.00 | 88 | 1014.9 |
| 20260507111245 | 41 | 231 | 0.0 | 0.0 | 158.78 | 0.00 | 0.00 | 88 | 1014.9 |
| 20260507110745 | 41 | 231 | 0.0 | 0.0 | 158.78 | 0.00 | 0.00 | 88 | 1014.8 |
| 20260507110245 | 41 | 231 | 0.0 | 0.0 | 158.78 | 0.00 | 0.00 | 88 | 1014.7 |
| 20260507105245 | 41 | 231 | 0.0 | 0.0 | 158.78 | 0.00 | 0.00 | 89 | 1014.5 |
| 20260507104745 | 41 | 231 | 0.0 | 0.0 | 158.78 | 0.00 | 0.00 | 89 | 1014.5 |
| 20260507104245 | 41 | 231 | 0.0 | 0.0 | 158.78 | 0.00 | 0.00 | 88 | 1014.6 |
| 20260507103745 | 41 | 231 | 0.0 | 0.0 | 158.78 | 0.00 | 0.00 | 88 | 1014.5 |
| 20260507103245 | 41 | 231 | 0.0 | 0.0 | 158.78 | 0.00 | 0.00 | 88 | 1014.5 |
| 20260507102745 | 41 | 231 | 0.0 | 0.0 | 158.78 | 0.00 | 0.00 | 88 | 1014.5 |
| 20260507102246 | 41 | 231 | 0.0 | 0.0 | 158.78 | 0.00 | 0.00 | 88 | 1014.5 |
| 20260507101745 | 41 | 231 | 0.0 | 0.0 | 158.78 | 0.00 | 0.00 | 88 | 1014.4 |
| 20260507101245 | 41 | 231 | 0.0 | 0.0 | 158.78 | 0.00 | 0.00 | 88 | 1014.4 |
| 20260507100745 | 41 | 231 | 0.0 | 0.0 | 158.78 | 0.00 | 0.00 | 88 | 1014.3 |
| 20260507100245 | 41 | 248 | 1.0 | 0.0 | 158.78 | 0.00 | 0.00 | 88 | 1014.4 |
| 20260507095745 | 41 | 211 | 0.0 | 0.0 | 158.78 | 0.00 | 0.00 | 88 | 1014.2 |
| 20260507095245 | 41 | 211 | 0.0 | 0.0 | 158.78 | 0.00 | 0.00 | 88 | 1014.2 |
| 20260507094745 | 42 | 211 | 0.0 | 0.0 | 158.78 | 0.00 | 0.00 | 88 | 1014.2 |
| 20260507094245 | 42 | 211 | 0.0 | 0.0 | 158.78 | 0.00 | 0.00 | 88 | 1014.3 |
| 20260507093745 | 42 | 211 | 0.0 | 0.0 | 158.78 | 0.00 | 0.00 | 88 | 1014.2 |
| 20260507093245 | 42 | 248 | 0.0 | 0.0 | 158.78 | 0.00 | 0.00 | 88 | 1014.1 |
| 20260507092746 | 42 | 248 | 0.0 | 0.0 | 158.78 | 0.00 | 0.00 | 88 | 1014.1 |
| 20260507091745 | 42 | 248 | 0.0 | 0.0 | 158.78 | 0.00 | 0.00 | 88 | 1014.2 |
| 20260507091245 | 42 | 287 | 1.0 | 0.0 | 158.78 | 0.00 | 0.00 | 88 | 1014.2 |
| 20260507090745 | 42 | 188 | 0.0 | 0.0 | 158.78 | 0.00 | 0.00 | 88 | 1014.1 |
| 20260507090245 | 42 | 188 | 0.0 | 0.0 | 158.78 | 0.00 | 0.00 | 88 | 1014.2 |
| 20260507085745 | 42 | 188 | 0.0 | 0.0 | 158.78 | 0.00 | 0.00 | 88 | 1014.2 |
| 20260507085245 | 42 | 188 | 0.0 | 0.0 | 158.78 | 0.00 | 0.00 | 88 | 1014.1 |
| 20260507084745 | 42 | 188 | 0.0 | 0.0 | 158.78 | 0.00 | 0.00 | 88 | 1014.1 |
| 20260507084245 | 42 | 188 | 0.0 | 0.0 | 158.78 | 0.00 | 0.00 | 88 | 1014.1 |
| 20260507083245 | 42 | 240 | 1.0 | 0.0 | 158.78 | 0.00 | 0.00 | 88 | 1014.2 |
| 20260507082745 | 42 | 93 | 0.0 | 0.0 | 158.78 | 0.00 | 0.00 | 88 | 1014.2 |
| 20260507082245 | 42 | 93 | 1.0 | 0.0 | 158.78 | 0.00 | 0.00 | 88 | 1014.2 |
| 20260507081745 | 42 | 253 | 0.0 | 0.0 | 158.78 | 0.00 | 0.00 | 88 | 1014.2 |
| 20260507081245 | 42 | 277 | 2.0 | 0.0 | 158.78 | 0.00 | 0.00 | 88 | 1014.3 |
| 20260507080745 | 42 | 214 | 0.0 | 0.0 | 158.78 | 0.00 | 0.00 | 88 | 1014.4 |
| 20260507080245 | 42 | 291 | 0.0 | 0.0 | 158.78 | 0.00 | 0.00 | 88 | 1014.3 |
| 20260507075745 | 42 | 291 | 0.0 | 0.0 | 158.78 | 0.00 | 0.00 | 88 | 1014.3 |
| 20260507075245 | 42 | 283 | 0.0 | 0.0 | 158.78 | 0.00 | 0.00 | 88 | 1014.2 |
| 20260507074745 | 42 | 283 | 0.0 | 0.0 | 158.78 | 0.00 | 0.00 | 88 | 1014.2 |
| 20260507074245 | 42 | 283 | 0.0 | 0.0 | 158.78 | 0.00 | 0.00 | 88 | 1014.2 |
| 20260507073745 | 42 | 283 | 0.0 | 0.0 | 158.78 | 0.00 | 0.00 | 88 | 1014.2 |
| 20260507073245 | 42 | 204 | 0.0 | 0.0 | 158.78 | 0.00 | 0.00 | 88 | 1014.2 |
| 20260507072745 | 42 | 204 | 0.0 | 0.0 | 158.78 | 0.00 | 0.00 | 88 | 1014.2 |
| 20260507072245 | 42 | 204 | 0.0 | 0.0 | 158.78 | 0.00 | 0.00 | 88 | 1014.2 |
| 20260507071745 | 42 | 204 | 0.0 | 0.0 | 158.78 | 0.00 | 0.00 | 88 | 1014.2 |
| 20260507071245 | 43 | 204 | 0.0 | 0.0 | 158.78 | 0.00 | 0.00 | 88 | 1014.3 |
| 20260507070745 | 43 | 204 | 0.0 | 0.0 | 158.78 | 0.00 | 0.00 | 88 | 1014.2 |
| 20260507070245 | 43 | 204 | 0.0 | 0.0 | 158.78 | 0.00 | 0.00 | 88 | 1014.2 |
| 20260507065745 | 43 | 204 | 0.0 | 0.0 | 158.78 | 0.00 | 0.00 | 88 | 1014.3 |
| 20260507065245 | 43 | 17 | 0.0 | 0.0 | 158.78 | 0.00 | 0.00 | 87 | 1014.3 |
| 20260507064747 | 43 | 17 | 0.0 | 0.0 | 158.78 | 0.00 | 0.00 | 87 | 1014.3 |
| 20260507064322 | 43 | 17 | 0.0 | 0.0 | 158.78 | 0.00 | 0.00 | 87 | 1014.3 |
| 20260507064245 | 43 | 17 | 0.0 | 0.0 | 158.78 | 0.00 | 0.00 | 87 | 1014.3 |
| 20260507063745 | 43 | 17 | 0.0 | 0.0 | 158.78 | 0.00 | 0.00 | 87 | 1014.4 |
| 20260507063245 | 43 | 17 | 0.0 | 0.0 | 158.78 | 0.00 | 0.00 | 87 | 1014.3 |
| 20260507062745 | 43 | 17 | 0.0 | 0.0 | 158.78 | 0.00 | 0.00 | 87 | 1014.4 |
| 20260507062245 | 43 | 17 | 0.0 | 0.0 | 158.78 | 0.00 | 0.00 | 87 | 1014.4 |
| 20260507061745 | 43 | 17 | 0.0 | 0.0 | 158.78 | 0.00 | 0.00 | 87 | 1014.5 |
| 20260507061245 | 43 | 17 | 0.0 | 0.0 | 158.78 | 0.00 | 0.00 | 87 | 1014.5 |
| 20260507060745 | 43 | 17 | 0.0 | 0.0 | 158.78 | 0.00 | 0.00 | 87 | 1014.5 |
| 20260507060245 | 43 | 17 | 0.0 | 0.0 | 158.78 | 0.00 | 0.00 | 86 | 1014.4 |
| 20260507055745 | 43 | 17 | 0.0 | 0.0 | 158.78 | 0.00 | 0.00 | 86 | 1014.5 |
| 20260507055245 | 43 | 17 | 0.0 | 0.0 | 158.78 | 0.00 | 0.00 | 86 | 1014.6 |
| 20260507054745 | 43 | 17 | 0.0 | 0.0 | 158.78 | 0.00 | 0.00 | 86 | 1014.6 |
| 20260507054245 | 43 | 17 | 0.0 | 0.0 | 158.78 | 0.00 | 0.00 | 86 | 1014.7 |
| 20260507053745 | 43 | 17 | 0.0 | 0.0 | 158.78 | 0.00 | 0.00 | 86 | 1014.7 |
| 20260507053245 | 43 | 17 | 0.0 | 0.0 | 158.78 | 0.00 | 0.00 | 86 | 1014.8 |
| 20260507052745 | 43 | 17 | 0.0 | 0.0 | 158.78 | 0.00 | 0.00 | 85 | 1014.8 |
| 20260507052245 | 44 | 17 | 0.0 | 0.0 | 158.78 | 0.00 | 0.00 | 86 | 1014.8 |
| 20260507051745 | 44 | 17 | 0.0 | 0.0 | 158.78 | 0.00 | 0.00 | 85 | 1014.8 |
| 20260507051245 | 44 | 17 | 0.0 | 0.0 | 158.78 | 0.00 | 0.00 | 85 | 1014.8 |
| 20260507050744 | 44 | 17 | 0.0 | 0.0 | 158.78 | 0.00 | 0.00 | 85 | 1014.7 |
| 20260507050244 | 44 | 17 | 0.0 | 0.0 | 158.78 | 0.00 | 0.00 | 85 | 1014.8 |
| 20260507045745 | 44 | 17 | 0.0 | 0.0 | 158.78 | 0.00 | 0.00 | 85 | 1014.8 |
| 20260507045244 | 44 | 17 | 0.0 | 0.0 | 158.78 | 0.00 | 0.00 | 85 | 1014.8 |
| 20260507044744 | 44 | 17 | 0.0 | 0.0 | 158.78 | 0.00 | 0.00 | 85 | 1014.8 |
| 20260507044245 | 44 | 17 | 0.0 | 0.0 | 158.78 | 0.00 | 0.00 | 85 | 1014.8 |
| 20260507043744 | 44 | 17 | 0.0 | 0.0 | 158.78 | 0.00 | 0.00 | 85 | 1014.8 |
| 20260507043244 | 45 | 17 | 0.0 | 0.0 | 158.78 | 0.00 | 0.28 | 84 | 1014.7 |
| 20260507042745 | 45 | 17 | 0.0 | 0.0 | 158.78 | 0.00 | 0.28 | 84 | 1014.7 |
| 20260507042244 | 45 | 17 | 0.0 | 0.0 | 158.78 | 0.00 | 0.28 | 84 | 1014.7 |
| 20260507041744 | 45 | 17 | 0.0 | 0.0 | 158.78 | 0.00 | 0.28 | 84 | 1014.8 |
| 20260507041245 | 45 | 17 | 0.0 | 0.0 | 158.78 | 0.00 | 0.28 | 83 | 1014.8 |
| 20260507040745 | 45 | 17 | 0.0 | 0.0 | 158.78 | 0.00 | 0.28 | 83 | 1014.7 |
| 20260507040244 | 45 | 17 | 0.0 | 0.0 | 158.78 | 0.00 | 0.28 | 83 | 1014.8 |
| 20260507035745 | 46 | 17 | 0.0 | 0.0 | 158.78 | 0.00 | 0.28 | 83 | 1014.8 |
| 20260507035244 | 46 | 17 | 0.0 | 0.0 | 158.78 | 0.00 | 0.28 | 83 | 1014.8 |
| 20260507034744 | 46 | 17 | 0.0 | 0.0 | 158.78 | 0.00 | 0.28 | 82 | 1014.9 |
| 20260507034245 | 46 | 17 | 0.0 | 0.0 | 158.78 | 0.00 | 0.28 | 82 | 1014.8 |
| 20260507033745 | 46 | 17 | 0.0 | 0.0 | 158.78 | 0.00 | 0.28 | 82 | 1014.9 |
| 20260507033244 | 46 | 17 | 0.0 | 0.0 | 158.78 | 0.00 | 0.28 | 82 | 1015.0 |
| 20260507032745 | 46 | 17 | 0.0 | 0.0 | 158.78 | 0.00 | 0.28 | 82 | 1015.0 |
| 20260507032244 | 47 | 17 | 0.0 | 0.0 | 158.78 | 0.00 | 0.28 | 82 | 1015.0 |
| 20260507031744 | 47 | 17 | 0.0 | 0.0 | 158.78 | 0.00 | 0.28 | 81 | 1015.0 |
| 20260507031245 | 47 | 17 | 0.0 | 0.0 | 158.78 | 0.00 | 0.28 | 81 | 1015.1 |
| 20260507030744 | 47 | 17 | 0.0 | 0.0 | 158.78 | 0.00 | 0.28 | 81 | 1015.2 |
| 20260507030244 | 47 | 17 | 0.0 | 0.0 | 158.78 | 0.00 | 0.28 | 81 | 1015.2 |
| 20260507025745 | 48 | 17 | 0.0 | 0.0 | 158.78 | 0.00 | 0.28 | 80 | 1015.2 |
| 20260507025244 | 48 | 17 | 0.0 | 0.0 | 158.78 | 0.00 | 0.28 | 80 | 1015.2 |
| 20260507024744 | 48 | 17 | 0.0 | 0.0 | 158.78 | 0.00 | 0.28 | 80 | 1015.3 |
| 20260507024245 | 48 | 17 | 0.0 | 0.0 | 158.78 | 0.00 | 0.28 | 79 | 1015.3 |
| 20260507023244 | 48 | 17 | 0.0 | 0.0 | 158.78 | 0.00 | 0.28 | 78 | 1015.1 |
| 20260507022245 | 49 | 17 | 0.0 | 0.0 | 158.78 | 0.00 | 0.28 | 76 | 1015.1 |
| 20260507021744 | 49 | 17 | 0.0 | 0.0 | 158.78 | 0.00 | 0.28 | 75 | 1015.0 |
| 20260507021245 | 49 | 17 | 0.0 | 0.0 | 158.78 | 0.00 | 0.28 | 75 | 1014.9 |
| 20260507020744 | 50 | 17 | 0.0 | 0.0 | 158.78 | 0.00 | 0.28 | 75 | 1014.9 |
| 20260507020244 | 50 | 17 | 0.0 | 0.0 | 158.78 | 0.00 | 0.28 | 75 | 1014.8 |
| 20260507015746 | 50 | 17 | 0.0 | 0.0 | 158.78 | 0.00 | 0.28 | 74 | 1014.9 |
| 20260507015244 | 50 | 17 | 0.0 | 0.0 | 158.78 | 0.00 | 0.28 | 74 | 1014.9 |
| 20260507014744 | 51 | 17 | 0.0 | 0.0 | 158.78 | 0.00 | 0.28 | 72 | 1014.9 |
| 20260507014245 | 51 | 17 | 0.0 | 0.0 | 158.78 | 0.00 | 0.28 | 73 | 1014.9 |
| 20260507013744 | 51 | 17 | 0.0 | 0.0 | 158.78 | 0.00 | 0.28 | 72 | 1014.9 |
| 20260507013244 | 52 | 17 | 0.0 | 0.0 | 158.78 | 0.00 | 0.28 | 72 | 1014.9 |
| 20260507012746 | 52 | 17 | 0.0 | 0.0 | 158.78 | 0.00 | 0.28 | 72 | 1014.8 |
| 20260507012244 | 52 | 17 | 0.0 | 0.0 | 158.78 | 0.00 | 0.28 | 71 | 1014.8 |
| 20260507011744 | 52 | 17 | 0.0 | 0.0 | 158.78 | 0.00 | 0.28 | 70 | 1014.8 |
| 20260507011245 | 53 | 17 | 0.0 | 0.0 | 158.78 | 0.00 | 0.28 | 69 | 1014.7 |
| 20260507010744 | 53 | 17 | 0.0 | 0.0 | 158.78 | 0.00 | 0.28 | 68 | 1014.7 |
| 20260507010244 | 53 | 17 | 0.0 | 0.0 | 158.78 | 0.00 | 0.28 | 67 | 1014.6 |
| 20260507005745 | 53 | 17 | 0.0 | 0.0 | 158.78 | 0.00 | 0.28 | 67 | 1014.5 |
| 20260507005244 | 54 | 17 | 0.0 | 0.0 | 158.78 | 0.00 | 0.28 | 66 | 1014.4 |
| 20260507004744 | 54 | 17 | 0.0 | 0.0 | 158.78 | 0.00 | 0.28 | 66 | 1014.4 |
| 20260507004245 | 54 | 17 | 0.0 | 0.0 | 158.78 | 0.00 | 0.28 | 65 | 1014.3 |
| 20260507003744 | 54 | 17 | 0.0 | 0.0 | 158.78 | 0.00 | 0.28 | 64 | 1014.3 |
| 20260507002745 | 54 | 17 | 0.0 | 0.0 | 158.78 | 0.00 | 0.28 | 62 | 1014.2 |
| 20260507002244 | 54 | 17 | 0.0 | 0.0 | 158.78 | 0.00 | 0.28 | 62 | 1014.1 |
| 20260507001744 | 54 | 311 | 0.0 | 0.0 | 158.78 | 0.00 | 0.28 | 62 | 1014.1 |
| 20260507001244 | 54 | 311 | 0.0 | 0.0 | 158.78 | 0.00 | 0.28 | 62 | 1014.0 |
| 20260507000246 | 55 | 311 | 0.0 | 0.0 | 158.78 | 0.00 | 0.28 | 58 | 1014.0 |
| 20260506235744 | 55 | 311 | 0.0 | 0.0 | 158.78 | 0.00 | 0.28 | 57 | 1014.1 |
| 20260506235244 | 55 | 8 | 0.0 | 0.0 | 158.78 | 0.00 | 0.28 | 57 | 1014.1 |
| 20260506234744 | 55 | 8 | 0.0 | 0.0 | 158.78 | 0.00 | 0.28 | 56 | 1013.9 |
| 20260506234244 | 55 | 8 | 0.0 | 0.0 | 158.78 | 0.00 | 0.28 | 56 | 1013.9 |
| 20260506233744 | 55 | 35 | 0.0 | 0.0 | 158.78 | 0.00 | 0.28 | 56 | 1013.9 |
| 20260506233244 | 55 | 329 | 2.0 | 0.0 | 158.78 | 0.00 | 0.28 | 56 | 1013.8 |
| 20260506232744 | 55 | 283 | 2.0 | 0.0 | 158.78 | 0.00 | 0.28 | 56 | 1014.0 |
| 20260506232244 | 55 | 11 | 0.0 | 0.0 | 158.78 | 0.00 | 0.28 | 56 | 1014.0 |
| 20260506231744 | 55 | 343 | 2.0 | 0.0 | 158.78 | 0.00 | 0.28 | 55 | 1014.1 |
| 20260506230744 | 55 | 31 | 2.0 | 0.0 | 158.78 | 0.00 | 0.28 | 53 | 1014.3 |
| 20260506230244 | 56 | 298 | 0.0 | 0.0 | 158.78 | 0.00 | 0.28 | 52 | 1014.3 |
| 20260506225744 | 56 | 336 | 1.0 | 0.0 | 158.78 | 0.00 | 0.28 | 52 | 1014.3 |
| 20260506225244 | 56 | 340 | 4.0 | 0.0 | 158.78 | 0.00 | 0.28 | 53 | 1014.3 |
| 20260506224744 | 56 | 325 | 3.0 | 0.0 | 158.78 | 0.00 | 0.28 | 52 | 1014.4 |
| 20260506224244 | 56 | 316 | 3.0 | 0.0 | 158.78 | 0.00 | 0.28 | 51 | 1014.4 |
| 20260506223744 | 56 | 24 | 4.0 | 0.0 | 158.78 | 0.00 | 0.28 | 52 | 1014.3 |
| 20260506223244 | 56 | 284 | 8.0 | 0.0 | 158.78 | 0.00 | 0.28 | 53 | 1014.2 |
| 20260506222744 | 56 | 273 | 4.0 | 0.0 | 158.78 | 0.00 | 0.28 | 53 | 1014.3 |
| 20260506222244 | 56 | 7 | 3.0 | 0.0 | 158.78 | 0.00 | 0.28 | 55 | 1014.3 |
| 20260506221744 | 56 | 34 | 2.0 | 0.0 | 158.78 | 0.00 | 0.28 | 53 | 1014.3 |
| 20260506221244 | 56 | 333 | 1.0 | 0.0 | 158.78 | 0.00 | 0.28 | 53 | 1014.2 |
| 20260506220744 | 56 | 339 | 4.0 | 0.0 | 158.78 | 0.00 | 0.28 | 52 | 1014.1 |
| 20260506220244 | 56 | 353 | 4.0 | 0.0 | 158.78 | 0.00 | 0.28 | 52 | 1014.1 |
| 20260506215744 | 56 | 302 | 4.0 | 0.0 | 158.78 | 0.00 | 0.28 | 52 | 1014.0 |
| 20260506215244 | 57 | 63 | 1.0 | 0.0 | 158.78 | 0.00 | 0.28 | 53 | 1013.9 |
| 20260506214244 | 57 | 300 | 2.0 | 0.0 | 158.78 | 0.00 | 0.28 | 53 | 1013.7 |
| 20260506213744 | 57 | 97 | 2.0 | 0.0 | 158.78 | 0.00 | 0.28 | 53 | 1013.6 |
| 20260506213244 | 57 | 4 | 4.0 | 0.0 | 158.78 | 0.00 | 0.28 | 55 | 1013.6 |
| 20260506212747 | 57 | 21 | 3.0 | 0.0 | 158.78 | 0.00 | 0.28 | 53 | 1013.6 |
| 20260506212244 | 57 | 345 | 4.0 | 0.0 | 158.78 | 0.00 | 0.28 | 53 | 1013.6 |
| 20260506211744 | 57 | 24 | 3.0 | 0.0 | 158.78 | 0.00 | 0.28 | 51 | 1013.6 |
| 20260506211245 | 57 | 328 | 5.0 | 0.0 | 158.78 | 0.00 | 0.28 | 52 | 1013.6 |
| 20260506210744 | 57 | 8 | 4.0 | 0.0 | 158.78 | 0.00 | 0.28 | 53 | 1013.6 |
| 20260506210244 | 57 | 300 | 4.0 | 0.0 | 158.78 | 0.00 | 0.28 | 52 | 1013.6 |
| 20260506205745 | 57 | 323 | 5.0 | 0.0 | 158.78 | 0.00 | 0.28 | 52 | 1013.7 |
| 20260506205246 | 57 | 353 | 5.0 | 0.0 | 158.78 | 0.00 | 0.28 | 52 | 1013.6 |
| 20260506204745 | 57 | 3 | 2.0 | 0.0 | 158.78 | 0.00 | 0.28 | 53 | 1013.6 |
| 20260506203745 | 57 | 31 | 6.0 | 0.0 | 158.78 | 0.00 | 0.28 | 50 | 1013.5 |
| 20260506203246 | 57 | 298 | 5.0 | 0.0 | 158.78 | 0.00 | 0.28 | 52 | 1013.4 |
| 20260506202746 | 57 | 17 | 3.0 | 0.0 | 158.78 | 0.00 | 0.28 | 50 | 1013.3 |
| 20260506202245 | 57 | 300 | 5.0 | 0.0 | 158.78 | 0.00 | 0.28 | 50 | 1013.3 |
| 20260506201745 | 57 | 4 | 3.0 | 0.0 | 158.78 | 0.00 | 0.28 | 51 | 1013.4 |
| 20260506201244 | 57 | 14 | 8.0 | 0.0 | 158.78 | 0.00 | 0.28 | 51 | 1013.3 |
| 20260506195744 | 57 | 277 | 4.0 | 0.0 | 158.78 | 0.00 | 0.28 | 52 | 1013.3 |
| 20260506195244 | 57 | 321 | 2.0 | 0.0 | 158.78 | 0.00 | 0.28 | 53 | 1013.3 |
| 20260506194746 | 57 | 340 | 2.0 | 0.0 | 158.78 | 0.00 | 0.28 | 53 | 1013.5 |
| 20260506194244 | 57 | 66 | 3.0 | 0.0 | 158.78 | 0.00 | 0.28 | 52 | 1013.5 |
| 20260506193744 | 57 | 340 | 4.0 | 0.0 | 158.78 | 0.00 | 0.28 | 52 | 1013.5 |
| 20260506193244 | 57 | 13 | 6.0 | 0.0 | 158.78 | 0.00 | 0.28 | 52 | 1013.6 |
| 20260506192244 | 57 | 17 | 0.0 | 0.0 | 158.78 | 0.00 | 0.28 | 53 | 1013.5 |
| 20260506191744 | 57 | 260 | 3.0 | 0.0 | 158.78 | 0.00 | 0.28 | 52 | 1013.5 |
| 20260506190744 | 57 | 301 | 2.0 | 0.0 | 158.78 | 0.00 | 0.28 | 50 | 1013.5 |
| 20260506190244 | 57 | 359 | 7.0 | 0.0 | 158.78 | 0.00 | 0.28 | 49 | 1013.3 |
| 20260506185744 | 58 | 3 | 6.0 | 0.0 | 158.78 | 0.00 | 0.28 | 49 | 1013.2 |
| 20260506185244 | 58 | 356 | 3.0 | 0.0 | 158.78 | 0.00 | 0.28 | 52 | 1013.2 |
| 20260506184744 | 58 | 34 | 5.0 | 0.0 | 158.78 | 0.00 | 0.28 | 50 | 1013.2 |
| 20260506184244 | 59 | 20 | 7.0 | 0.0 | 158.78 | 0.00 | 0.28 | 50 | 1013.3 |
| 20260506183744 | 59 | 359 | 8.0 | 0.0 | 158.78 | 0.00 | 0.28 | 53 | 1013.4 |
| 20260506183244 | 59 | 7 | 7.0 | 0.0 | 158.78 | 0.00 | 0.28 | 51 | 1013.4 |
| 20260506182744 | 59 | 13 | 7.0 | 0.0 | 158.78 | 0.00 | 0.28 | 54 | 1013.3 |
| 20260506182502 | 59 | 46 | 3.0 | 0.0 | 158.78 | 0.00 | 0.28 | 51 | 1013.6 |
| 20260506182244 | 59 | 20 | 4.0 | 0.0 | 158.78 | 0.00 | 0.28 | 53 | 1013.3 |
| 20260506181744 | 59 | 46 | 3.0 | 0.0 | 158.78 | 0.00 | 0.28 | 51 | 1013.6 |
| 20260506181244 | 59 | 315 | 10.0 | 0.0 | 158.78 | 0.00 | 0.28 | 52 | 1013.5 |
| 20260506180744 | 59 | 15 | 2.0 | 0.0 | 158.78 | 0.00 | 0.28 | 49 | 1013.4 |
| 20260506180244 | 59 | 326 | 8.0 | 0.0 | 158.78 | 0.00 | 0.28 | 50 | 1013.4 |
| 20260506175744 | 59 | 312 | 4.0 | 0.0 | 158.78 | 0.00 | 0.28 | 52 | 1013.4 |
| 20260506175244 | 59 | 278 | 5.0 | 0.0 | 158.78 | 0.00 | 0.28 | 50 | 1013.3 |
| 20260506174744 | 59 | 3 | 7.0 | 0.0 | 158.78 | 0.00 | 0.28 | 53 | 1013.4 |
| 20260506174244 | 58 | 346 | 6.0 | 0.0 | 158.78 | 0.00 | 0.28 | 52 | 1013.4 |
| 20260506173744 | 58 | 316 | 5.0 | 0.0 | 158.78 | 0.00 | 0.28 | 53 | 1013.3 |
| 20260506173632 | 58 | 356 | 6.0 | 0.0 | 158.78 | 0.00 | 0.28 | 52 | 1013.4 |
| 20260506173245 | 58 | 356 | 6.0 | 0.0 | 158.78 | 0.00 | 0.28 | 52 | 1013.4 |
| 20260506172244 | 58 | 340 | 6.0 | 0.0 | 158.78 | 0.00 | 0.28 | 55 | 1013.4 |
| 20260506171744 | 57 | 359 | 3.0 | 0.0 | 158.78 | 0.00 | 0.28 | 52 | 1013.3 |
| 20260506171244 | 57 | 346 | 8.0 | 0.0 | 158.78 | 0.00 | 0.28 | 52 | 1013.3 |
| 20260506170244 | 57 | 333 | 3.0 | 0.0 | 158.78 | 0.00 | 0.28 | 58 | 1013.2 |
| 20260506165955 | 57 | 269 | 8.0 | 0.0 | 158.78 | 0.00 | 0.28 | 61 | 1013.3 |
| 20260506165744 | 57 | 269 | 8.0 | 0.0 | 158.78 | 0.00 | 0.28 | 61 | 1013.3 |
| 20260506165244 | 57 | 332 | 6.0 | 0.0 | 158.78 | 0.00 | 0.28 | 58 | 1013.4 |
| 20260506164744 | 57 | 349 | 3.0 | 0.0 | 158.78 | 0.00 | 0.28 | 60 | 1013.4 |
| 20260506164244 | 56 | 336 | 1.0 | 0.0 | 158.78 | 0.00 | 0.28 | 58 | 1013.5 |
| 20260506163744 | 56 | 4 | 5.0 | 0.0 | 158.78 | 0.00 | 0.28 | 63 | 1013.4 |
| 20260506163246 | 56 | 1 | 3.0 | 0.0 | 158.78 | 0.00 | 0.28 | 62 | 1013.3 |
| 20260506162744 | 56 | 10 | 10.0 | 0.0 | 158.78 | 0.00 | 0.28 | 63 | 1013.2 |
| 20260506162243 | 56 | 13 | 2.0 | 0.0 | 158.78 | 0.00 | 0.28 | 65 | 1013.3 |
| 20260506161744 | 55 | 359 | 8.0 | 0.0 | 158.78 | 0.00 | 0.28 | 62 | 1013.5 |
| 20260506161539 | 55 | 325 | 6.0 | 0.0 | 158.78 | 0.00 | 0.28 | 65 | 1013.4 |
| 20260506161244 | 55 | 325 | 6.0 | 0.0 | 158.78 | 0.00 | 0.28 | 65 | 1013.4 |
| 20260506160744 | 55 | 69 | 2.0 | 0.0 | 158.78 | 0.00 | 0.28 | 64 | 1013.4 |
| 20260506160243 | 54 | 315 | 5.0 | 0.0 | 158.78 | 0.00 | 0.28 | 64 | 1013.3 |
| 20260506155745 | 54 | 315 | 6.0 | 0.0 | 158.78 | 0.00 | 0.28 | 65 | 1013.1 |
| 20260506155243 | 54 | 359 | 6.0 | 0.0 | 158.78 | 0.00 | 0.28 | 69 | 1013.1 |
| 20260506154744 | 54 | 14 | 5.0 | 0.0 | 158.78 | 0.00 | 0.28 | 65 | 1013.2 |
| 20260506154244 | 54 | 332 | 1.0 | 0.0 | 158.78 | 0.00 | 0.28 | 68 | 1013.0 |
| 20260506153744 | 53 | 84 | 3.0 | 0.0 | 158.78 | 0.00 | 0.28 | 68 | 1012.9 |
| 20260506153244 | 53 | 352 | 3.0 | 0.0 | 158.78 | 0.00 | 0.28 | 70 | 1012.8 |
| 20260506152744 | 53 | 338 | 6.0 | 0.0 | 158.78 | 0.00 | 0.28 | 69 | 1012.7 |
| 20260506152244 | 53 | 307 | 7.0 | 0.0 | 158.78 | 0.00 | 0.28 | 69 | 1012.8 |
| 20260506151744 | 53 | 27 | 2.0 | 0.0 | 158.78 | 0.00 | 0.28 | 69 | 1012.7 |
| 20260506151244 | 52 | 18 | 1.0 | 0.0 | 158.78 | 0.00 | 0.28 | 69 | 1012.6 |
| 20260506150744 | 52 | 30 | 4.0 | 0.0 | 158.78 | 0.00 | 0.28 | 69 | 1012.7 |
| 20260506150243 | 52 | 297 | 4.0 | 0.0 | 158.78 | 0.00 | 0.28 | 68 | 1012.6 |
| 20260506145244 | 52 | 281 | 3.0 | 0.0 | 158.78 | 0.00 | 0.28 | 70 | 1012.7 |
| 20260506144743 | 52 | 346 | 2.0 | 0.0 | 158.78 | 0.00 | 0.28 | 68 | 1012.7 |
| 20260506144509 | 52 | 321 | 2.0 | 0.0 | 158.78 | 0.00 | 0.28 | 73 | 1012.6 |
| 20260506144244 | 52 | 321 | 2.0 | 0.0 | 158.78 | 0.00 | 0.28 | 73 | 1012.6 |
| 20260506143744 | 51 | 319 | 4.0 | 0.0 | 158.78 | 0.00 | 0.28 | 71 | 1012.6 |
| 20260506143243 | 51 | 17 | 0.0 | 0.0 | 158.78 | 0.00 | 0.28 | 70 | 1012.6 |
| 20260506142744 | 51 | 359 | 3.0 | 0.0 | 158.78 | 0.00 | 0.28 | 69 | 1012.3 |
| 20260506142243 | 51 | 8 | 1.0 | 0.0 | 158.78 | 0.00 | 0.28 | 72 | 1012.3 |
| 20260506141743 | 51 | 359 | 7.0 | 0.0 | 158.78 | 0.00 | 0.28 | 74 | 1012.1 |
| 20260506141244 | 50 | 308 | 9.0 | 0.0 | 158.78 | 0.00 | 0.28 | 75 | 1012.1 |
| 20260506140745 | 50 | 14 | 6.0 | 0.0 | 158.78 | 0.00 | 0.28 | 76 | 1011.9 |
| 20260506140243 | 50 | 322 | 5.0 | 0.0 | 158.78 | 0.00 | 0.28 | 76 | 1011.9 |
| 20260506135744 | 50 | 328 | 1.0 | 0.0 | 158.78 | 0.00 | 0.28 | 78 | 1011.9 |
| 20260506135243 | 50 | 21 | 4.0 | 0.0 | 158.78 | 0.00 | 0.28 | 78 | 1011.8 |
| 20260506134743 | 49 | 352 | 2.0 | 0.0 | 158.78 | 0.00 | 0.28 | 78 | 1011.7 |
| 20260506134244 | 49 | 204 | 2.0 | 0.0 | 158.78 | 0.00 | 0.28 | 82 | 1011.6 |
| 20260506133743 | 49 | 311 | 2.0 | 0.0 | 158.78 | 0.00 | 0.28 | 81 | 1011.7 |
| 20260506133245 | 49 | 20 | 3.0 | 0.0 | 158.78 | 0.00 | 0.28 | 82 | 1011.8 |